View from above orbital plane
|
View from above satellite
|
Ground track
|
The orbit data is extracted from the following two-line orbital elements,
1 36800U 10035F 21016.49899218 -.00000139 00000-0 -68717-5 0 9995
2 36800 98.1608 208.6260 0021643 338.8159 21.2162 14.94839082572453
Epoch (UTC): | 16 January 2021 11:58:32 |
Eccentricity: | 0.0021643 |
inclination: | 98.1608° |
perigee height: | 568 km |
apogee height: | 598 km |
right ascension of ascending node: | 208.6260° |
argument of perigee: | 338.8159° |
revolutions per day: | 14.94839082 |
mean anomaly at epoch: | 21.2162° |
orbit number at epoch: | 57245 |
The dashed part of the orbit path shows where the satellite is in the earth's shadow,
|
|